Regional Weather Roundup
Issued by NWS

Home | Current Version | Previous Version | Graphics & Text | Print | Product List | Glossary On
Versions: 1 2 3 4 5 6 7 8 9 10 11 12 13 14 15 16 17 18 19 20 21 22 23 24 25 26 27 28 29 30 31 32 33 34 35 36 37 38 39 40 41 42 43 44 45 46 47 48 49 50
000
ASUS43 KDMX 301807
RWRIA

WEATHER ROUNDUP FOR IOWA
NATIONAL WEATHER SERVICE DES MOINES IA
100 PM CDT TUE JUN 30 2015

NOTE: "FAIR" INDICATES FEW OR NO CLOUDS BELOW 12,000 FEET WITH NO
SIGNIFICANT WEATHER AND/OR OBSTRUCTIONS TO VISIBILITY.

* - THESE STATIONS ARE NOT NWS STATIONS...THUS NOT UNDER NWS
QUALITY CONTROL.  THEY ALSO DO NOT REPORT WEATHER SUCH
AS PRECIPITATION OR FOG.

IAZ001>003-012>014-020>022-031>034-043>046-301900-
   NORTHWEST IOWA

CITY           SKY/WX    TMP DP  RH WIND       PRES   REMARKS
CARROLL *      SUNNY     75  64  69 VRB3      29.93S
CHEROKEE *     CLOUDY    76  68  75 W3        29.95R
DENISON *      SUNNY     73  68  83 W7        29.94R
LE MARS *      SUNNY     73  66  78 CALM      29.95F
ORANGE CITY *  SUNNY     73  63  68 SW5       29.95F
SHELDON *      SUNNY     75  70  83 CALM      29.93F
SIOUX CITY     CLOUDY    73  66  78 CALM      29.94F
6HR MIN TEMP:  67; 6HR MAX TEMP:  74;

SPENCER        PTSUNNY   78  63  59 NW3       29.94S HX  80
6HR MIN TEMP:  61; 6HR MAX TEMP:  78;

STORM LAKE *   SUNNY     75  66  73 NW5       29.96R
$$

IAZ055>058-069>071-079>083-090>094-301900-
   SOUTHWEST IOWA

CITY           SKY/WX    TMP DP  RH WIND       PRES   REMARKS
ATLANTIC *     SUNNY     75  64  69 W7        29.95R
AUDUBON *      SUNNY     75  68  78 CALM      29.95S
CLARINDA *     SUNNY     79  77  94 NW3       29.95S HX  83
COUNCIL BLFS * SUNNY     75  68  78 MISG      29.96S HAZE
CRESTON *      SUNNY     77  64  65 NW3       29.94S
HARLAN  *      SUNNY     75  72  88 NW7       29.99R
LAMONI         PTSUNNY   80  65  59 VRB3      29.93R HX  82
6HR MIN TEMP:  67; 6HR MAX TEMP:  80;

RED OAK *      MOSUNNY   77  70  78 N5        29.96R
SHENANDOAH *   PTSUNNY   77  68  73 CALM      29.96R
$$

IAZ047>049-059>061-072>074-084-301900-
   CENTRAL IOWA

CITY           SKY/WX    TMP DP  RH WIND       PRES   REMARKS
AMES           SUNNY     78  65  63 NW6       29.90S HX  80
6HR MIN TEMP:  65; 6HR MAX TEMP:  78;

ANKENY *       SUNNY     77  68  73 NW8       29.90S
CHARITON *     SUNNY     77  66  69 NW7       29.91S
DES MOINES     CLOUDY    80  65  59 VRB5      29.90R HX  82
6HR MIN TEMP:  68; 6HR MAX TEMP:  80;

GRINNELL*      MOSUNNY   77  68  74 N7        29.90S
KNOXVILLE *    SUNNY     77  66  69 NW6       29.89S
MARSHALLTOWN   MOSUNNY   77  67  71 VRB3      29.89R
6HR MIN TEMP:  63; 6HR MAX TEMP:  78;

PELLA *        SUNNY     79  70  73 NW9       29.90S HX  82
PERRY *          N/A     77  66  69 NW6       29.92S
$$

IAZ004>006-015-016-023>025-035-036-301900-
   NORTH CENTRAL IOWA

CITY           SKY/WX    TMP DP  RH WIND       PRES   REMARKS
ALGONA *       SUNNY     75  66  73 N7        29.93S
CLARION *      SUNNY     77  63  61 N8        29.92S
ESTHERVILLE    MOSUNNY   74  64  71 N8        29.93F
6HR MIN TEMP:  62; 6HR MAX TEMP:  74;

FORT DODGE *   MOSUNNY   75  63  64 NW3       29.93S
MASON CITY     PTSUNNY   77  63  61 N13       29.93S
6HR MIN TEMP:  64; 6HR MAX TEMP:  78;

FOREST CITY *  PTSUNNY   73  63  68 N9        29.93S
IOWA FALLS *     N/A     77  64  65 NW8       29.92S
$$

IAZ007>011-017>019-026>030-037>042-050>054-066-301900-
   NORTHEAST IOWA

CITY           SKY/WX    TMP DP  RH WIND       PRES   REMARKS
CEDAR RAPIDS   SUNNY     79  66  64 N12       29.87S HX  81
6HR MIN TEMP:  62; 6HR MAX TEMP:  79;

CHARLES CITY * MOSUNNY   77  64  65 N13       29.91S
CLINTON *      MOSUNNY   75  63  64 N10G16    29.89R
DECORAH *        N/A    N/A N/A N/A MISG        N/A
DUBUQUE        MOSUNNY   75  63  66 N14       29.88R
6HR MIN TEMP:  62; 6HR MAX TEMP:  75;

MONTICELLO *   MOSUNNY   77  77 100 N7        29.87S
OELWEIN *      PTSUNNY   75  64  69 N8        29.90S
WATERLOO       SUNNY     79  63  57 N7        29.87F HX  80
6HR MIN TEMP:  62; 6HR MAX TEMP:  79;

$$

IAZ064-065-067-068-078-301900-
   EAST CENTRAL IOWA

CITY           SKY/WX    TMP DP  RH WIND       PRES   REMARKS
DAVENPORT      SUNNY     78  63  59 N10       29.87R HX  80
6HR MIN TEMP:  63; 6HR MAX TEMP:  78;

IOWA CITY      SUNNY     79  65  62 NE7       29.87S HX  81
6HR MIN TEMP:  63; 6HR MAX TEMP:  80;

MT. PLEASANT * MOSUNNY   82  63  53 NW8       29.87S HX  83
MUSCATINE *    MOSUNNY   81  64  57 VRB3      29.86S HX  82
QUAD CITIES    SUNNY     80  63  55 N9        29.85S HX  81
6HR MIN TEMP:  65; 6HR MAX TEMP:  80;

$$

IAZ062-063-075>077-085>089-095>099-301900-
   SOUTHEAST IOWA

CITY           SKY/WX    TMP DP  RH WIND       PRES   REMARKS
BURLINGTON     MOSUNNY   80  69  69 N8        29.86S HX  83
6HR MIN TEMP:  65; 6HR MAX TEMP:  80;

FAIRFIELD *    MOSUNNY   77  68  73 N8        29.88S
FORT MADISON * MOSUNNY   79  70  73 NW5       29.88R HX  81
KEOKUK *       MOSUNNY   79  68  69 NW8       29.87R HX  81
OSKALOOSA *      N/A     77  68  73 NW5       29.89S
CENTERVILLE *  SUNNY     77  66  69 NW8       29.93R
OTTUMWA        SUNNY     78  69  73 NW8       29.87S HX  80
6HR MIN TEMP:  65; 6HR MAX TEMP:  79;

WASHINGTON *   MOSUNNY   79  68  69 NW9       29.89R HX  81
$$

ABBREVIATIONS USED IN REMARKS
   TC - TEMPERATURES IN CELSIUS
  WCI - WIND CHILL INDEX
   HX - HEAT INDEX
  VSB - VISIBILITY
$$



USA.gov is the U.S. government's official web portal to all federal, state and local government web resources and services.